Huron, SD

6:57 AM CDT on October 22, 2019 (GMT -0500)
Huron Regional

Weather History for KHON - September, 2019

Change the Weather History Date:

Saturday, September 21, 2019

  Actual Average Record
Temperature  
Mean Temperature 67 °F 59 °F  
Max Temperature 78 °F 72 °F 97 °F (1936)
Min Temperature 56 °F 46 °F 28 °F (1974)
Degree Days  
Heating Degree Days 0 7  
Month to date heating degree days 18 86  
Since 1 July heating degree days 29 115  
Cooling Degree Days 2 1  
Month to date cooling degree days 98 62  
Year to date cooling degree days 714 731  
Growing Degree Days 17 (Base 50)    
Moisture  
Dew Point 61 °F    
Average Humidity 77    
Maximum Humidity 100    
Minimum Humidity 48    
Precipitation  
Precipitation 0.16 in 0.07 in 1.15 in (1924)
Month to date precipitation 3.23 1.79  
Year to date precipitation 32.83 19.05  
Snow  
Snow 0.00 in 0.00 in T in (1995)
Month to date snowfall 0.0 0.0  
Since 1 July snowfall 0.0 0.0  
Since 1 September snowfall 0.0 0.0  
Snow Depth 0.00 in    
Sea Level Pressure  
Sea Level Pressure 29.74 in    
Wind  
Wind Speed 13 mph ()    
Max Wind Speed 25 mph    
Max Gust Speed 38 mph    
Visibility 9.0 miles    
Events Rain , Thunderstorm    
T = Trace of Precipitation, MM = Missing Value Source: Averaged Metar Reports

Daily Weather History Graph

Daily Weather History Graph

Search for Another Location

Airport or City:

Astronomy

Sep. 21, 2019 Rise Set
Actual Time 7:18 AM CDT 7:32 PM CDT
Civil Twilight 6:49 AM CDT 8:01 PM CDT
Nautical Twilight 6:15 AM CDT 8:35 PM CDT
Astronomical Twilight 5:40 AM CDT 9:10 PM CDT
Moon 11:56 PM CDT (9/21) 2:41 PM CDT (9/21)
Length of Visible Light 13h 11m
Length of Day
12h 13m
Waning Gibbous, 54% of the Moon is Illuminated
Sep 21
Waning Gibbous
Sep 21
Last Quarter
Sep 28
New
Oct 5
First Quarter
Oct 13
Full

Hourly Weather History & Observations

Time (CDT) Temp. Dew Point Humidity Pressure Visibility Wind Dir Wind Speed Gust Speed Precip Events Conditions
12:55 AM 73.0 °F 66.9 °F 81% 29.68 in 10.0 mi SSE 19.6 mph 27.6 mph N/A   Clear
1:55 AM 72.0 °F 66.0 °F 81% 29.68 in 10.0 mi SSE 16.1 mph - N/A   Clear
2:55 AM 72.0 °F 66.0 °F 81% 29.66 in 10.0 mi South 15.0 mph 26.5 mph N/A   Mostly Cloudy
3:17 AM 71.1 °F 66.0 °F 84% 29.68 in 10.0 mi SSE 10.4 mph 21.9 mph N/A Thunderstorm Partly Cloudy
3:33 AM 70.0 °F 66.9 °F 90% 29.67 in 5.0 mi SSE 11.5 mph - 0.02 in Rain , Thunderstorm Heavy Thunderstorms and Rain
3:55 AM 70.0 °F 66.9 °F 90% 29.65 in 10.0 mi South 13.8 mph 21.9 mph 0.04 in Thunderstorm Thunderstorm
4:03 AM 71.1 °F 66.9 °F 87% 29.68 in 10.0 mi South 16.1 mph 26.5 mph N/A Thunderstorm Overcast
4:10 AM 69.1 °F 66.0 °F 90% 29.74 in 6.0 mi West 25.3 mph 38.0 mph N/A   Overcast
4:15 AM 66.0 °F 62.1 °F 87% 29.74 in 2.5 mi West 20.7 mph 38.0 mph 0.06 in Rain Heavy Rain
4:20 AM 64.4 °F 62.6 °F 94% 29.74 in 3.0 mi WNW 18.4 mph - N/A Rain Rain
4:55 AM 64.0 °F 62.1 °F 93% 29.67 in 7.0 mi East 5.8 mph - 0.11 in Rain Light Rain
5:55 AM 64.0 °F 62.1 °F 93% 29.67 in 10.0 mi SE 5.8 mph - 0.01 in   Scattered Clouds
6:55 AM 63.0 °F 61.0 °F 93% 29.71 in 10.0 mi West 9.2 mph - 0.00 in   Clear
7:55 AM 63.0 °F 62.1 °F 97% 29.69 in 10.0 mi SW 4.6 mph - N/A   Clear
8:55 AM 66.0 °F 63.0 °F 90% 29.70 in 10.0 mi WSW 8.1 mph - N/A   Clear
9:55 AM 70.0 °F 63.0 °F 78% 29.71 in 10.0 mi SW 11.5 mph - N/A   Clear
10:55 AM 71.1 °F 62.1 °F 73% 29.73 in 10.0 mi West 15.0 mph - N/A   Clear
11:55 AM 73.0 °F 61.0 °F 66% 29.73 in 10.0 mi West 15.0 mph - N/A   Clear
12:55 PM 75.0 °F 61.0 °F 62% 29.73 in 10.0 mi WSW 12.7 mph 19.6 mph N/A   Clear
1:55 PM 78.1 °F 57.0 °F 48% 29.73 in 10.0 mi WSW 16.1 mph 21.9 mph N/A   Clear
2:55 PM 77.0 °F 57.9 °F 52% 29.73 in 10.0 mi West 20.7 mph 34.5 mph N/A   Clear
3:55 PM 75.9 °F 57.0 °F 52% 29.76 in 10.0 mi West 18.4 mph 28.8 mph N/A   Clear
4:55 PM 73.9 °F 55.9 °F 53% 29.78 in 10.0 mi West 19.6 mph 32.2 mph N/A   Partly Cloudy
5:55 PM 73.0 °F 55.0 °F 53% 29.79 in 10.0 mi WNW 15.0 mph - N/A   Clear
6:55 PM 69.1 °F 55.9 °F 63% 29.82 in 10.0 mi West 6.9 mph - N/A   Partly Cloudy
7:55 PM 64.9 °F 55.9 °F 73% 29.84 in 10.0 mi West 9.2 mph - N/A   Partly Cloudy
8:55 PM 63.0 °F 54.0 °F 72% 29.87 in 8.0 mi West 6.9 mph - N/A   Clear
9:55 PM 61.0 °F 51.1 °F 70% 29.87 in 10.0 mi West 9.2 mph - N/A   Clear
10:55 PM 59.0 °F 51.1 °F 75% 29.87 in 10.0 mi West 10.4 mph - N/A   Clear
11:55 PM 57.9 °F 51.1 °F 78% 29.87 in 10.0 mi West 9.2 mph - N/A   Clear